Time,TemperatureF,DewpointF,PressureIn,WindDirection,WindDirectionDegrees,WindSpeedMPH,WindSpeedGustMPH,Humidity,HourlyPrecipIn,Conditions,Clouds,dailyrainin,SoftwareType,DateUTC
2013-04-01 00:14:00,-999.0,-99.9,29.59,North,-999,-999.0,-999.0,-999,-99.99,,,0.00,weatherlink.com 1.10,2013-04-01 04:14:00,
2013-04-01 00:29:00,-999.0,-99.9,29.58,North,-999,-999.0,-999.0,-999,-99.99,,,0.00,weatherlink.com 1.10,2013-04-01 04:29:00,
2013-04-01 00:44:00,-999.0,-99.9,29.58,North,-999,-999.0,-999.0,-999,-99.99,,,0.00,weatherlink.com 1.10,2013-04-01 04:44:00,
2013-04-01 00:59:00,-999.0,-99.9,29.57,North,-999,-999.0,-999.0,-999,-99.99,,,0.00,weatherlink.com 1.10,2013-04-01 04:59:00,
2013-04-01 01:14:00,-999.0,-99.9,29.57,North,-999,-999.0,-999.0,-999,-99.99,,,0.00,weatherlink.com 1.10,2013-04-01 05:14:00,
2013-04-01 01:29:00,-999.0,-99.9,29.56,North,-999,-999.0,-999.0,-999,-99.99,,,0.00,weatherlink.com 1.10,2013-04-01 05:29:00,
2013-04-01 01:44:00,-999.0,-99.9,29.56,North,-999,-999.0,-999.0,-999,-99.99,,,0.00,weatherlink.com 1.10,2013-04-01 05:44:00,
2013-04-01 01:59:00,-999.0,-99.9,29.55,North,-999,-999.0,-999.0,-999,-99.99,,,0.00,weatherlink.com 1.10,2013-04-01 05:59:00,
2013-04-01 02:14:00,-999.0,-99.9,29.55,North,-999,-999.0,-999.0,-999,-99.99,,,0.00,weatherlink.com 1.10,2013-04-01 06:14:00,
2013-04-01 02:29:00,-999.0,-99.9,29.54,North,-999,-999.0,-999.0,-999,-99.99,,,0.00,weatherlink.com 1.10,2013-04-01 06:29:00,
2013-04-01 02:44:00,-999.0,-99.9,29.54,North,-999,-999.0,-999.0,-999,-99.99,,,0.00,weatherlink.com 1.10,2013-04-01 06:44:00,
2013-04-01 02:59:00,-999.0,-99.9,29.55,North,-999,-999.0,-999.0,-999,-99.99,,,0.00,weatherlink.com 1.10,2013-04-01 06:59:00,
2013-04-01 03:14:00,-999.0,-99.9,29.54,North,-999,-999.0,-999.0,-999,-99.99,,,0.00,weatherlink.com 1.10,2013-04-01 07:14:00,
2013-04-01 03:29:00,-999.0,-99.9,29.54,North,-999,-999.0,-999.0,-999,-99.99,,,0.00,weatherlink.com 1.10,2013-04-01 07:29:00,
2013-04-01 03:44:00,-999.0,-99.9,29.54,North,-999,-999.0,-999.0,-999,-99.99,,,0.00,weatherlink.com 1.10,2013-04-01 07:44:00,
2013-04-01 03:59:00,-999.0,-99.9,29.54,North,-999,-999.0,-999.0,-999,-99.99,,,0.00,weatherlink.com 1.10,2013-04-01 07:59:00,
2013-04-01 04:14:00,-999.0,-99.9,29.55,North,-999,-999.0,-999.0,-999,-99.99,,,0.00,weatherlink.com 1.10,2013-04-01 08:14:00,
2013-04-01 04:29:00,-999.0,-99.9,29.54,North,-999,-999.0,-999.0,-999,-99.99,,,0.00,weatherlink.com 1.10,2013-04-01 08:29:00,
2013-04-01 04:44:00,-999.0,-99.9,29.55,North,-999,-999.0,-999.0,-999,-99.99,,,0.00,weatherlink.com 1.10,2013-04-01 08:44:00,
2013-04-01 04:59:00,-999.0,-99.9,29.55,North,-999,-999.0,-999.0,-999,-99.99,,,0.00,weatherlink.com 1.10,2013-04-01 08:59:00,
2013-04-01 05:14:00,-999.0,-99.9,29.56,North,-999,-999.0,-999.0,-999,-99.99,,,0.00,weatherlink.com 1.10,2013-04-01 09:14:00,
2013-04-01 05:29:00,-999.0,-99.9,29.55,North,-999,-999.0,-999.0,-999,-99.99,,,0.00,weatherlink.com 1.10,2013-04-01 09:29:00,
2013-04-01 05:44:00,-999.0,-99.9,29.55,North,-999,-999.0,-999.0,-999,-99.99,,,0.00,weatherlink.com 1.10,2013-04-01 09:44:00,
2013-04-01 05:59:00,-999.0,-99.9,29.56,North,-999,-999.0,-999.0,-999,-99.99,,,0.00,weatherlink.com 1.10,2013-04-01 09:59:00,
2013-04-01 06:14:00,-999.0,-99.9,29.57,North,-999,-999.0,-999.0,-999,-99.99,,,0.00,weatherlink.com 1.10,2013-04-01 10:14:00,
2013-04-01 06:29:00,-999.0,-99.9,29.57,North,-999,-999.0,-999.0,-999,-99.99,,,0.00,weatherlink.com 1.10,2013-04-01 10:29:00,
2013-04-01 06:44:00,-999.0,-99.9,29.57,North,-999,-999.0,-999.0,-999,-99.99,,,0.00,weatherlink.com 1.10,2013-04-01 10:44:00,
2013-04-01 06:59:00,-999.0,-99.9,29.58,North,-999,-999.0,-999.0,-999,-99.99,,,0.00,weatherlink.com 1.10,2013-04-01 10:59:00,
2013-04-01 07:14:00,-999.0,-99.9,29.59,North,-999,-999.0,-999.0,-999,-99.99,,,0.00,weatherlink.com 1.10,2013-04-01 11:14:00,
2013-04-01 07:29:00,-999.0,-99.9,29.59,North,-999,-999.0,-999.0,-999,-99.99,,,0.00,weatherlink.com 1.10,2013-04-01 11:29:00,
2013-04-01 07:44:00,-999.0,-99.9,29.60,North,-999,-999.0,-999.0,-999,-99.99,,,0.00,weatherlink.com 1.10,2013-04-01 11:44:00,
2013-04-01 07:59:00,-999.0,-99.9,29.62,North,-999,-999.0,-999.0,-999,-99.99,,,0.00,weatherlink.com 1.10,2013-04-01 11:59:00,
2013-04-01 08:14:00,-999.0,-99.9,29.64,North,-999,-999.0,-999.0,-999,-99.99,,,0.00,weatherlink.com 1.10,2013-04-01 12:14:00,
2013-04-01 08:29:00,-999.0,-99.9,29.64,North,-999,-999.0,-999.0,-999,-99.99,,,0.00,weatherlink.com 1.10,2013-04-01 12:29:00,
2013-04-01 08:44:00,-999.0,-99.9,29.66,North,-999,-999.0,-999.0,-999,-99.99,,,0.00,weatherlink.com 1.10,2013-04-01 12:44:00,
2013-04-01 08:59:00,-999.0,-99.9,29.66,North,-999,-999.0,-999.0,-999,-99.99,,,0.00,weatherlink.com 1.10,2013-04-01 12:59:00,
2013-04-01 09:14:00,34.7,21.0,29.67,WNW,302,7.0,-999.0,57,-99.99,,,0.00,weatherlink.com 1.10,2013-04-01 13:14:00,
2013-04-01 09:29:00,34.4,22.0,29.69,WSW,241,12.0,-999.0,62,-99.99,,,0.00,weatherlink.com 1.10,2013-04-01 13:29:00,
2013-04-01 09:44:00,34.5,24.0,29.70,SW,235,8.0,-999.0,65,-99.99,,,0.00,weatherlink.com 1.10,2013-04-01 13:44:00,
2013-04-01 09:59:00,35.9,25.0,29.70,West,279,2.0,-999.0,66,-99.99,,,0.00,weatherlink.com 1.10,2013-04-01 13:59:00,
2013-04-01 10:14:00,34.4,25.0,29.71,WSW,240,12.0,-999.0,69,-99.99,,,0.00,weatherlink.com 1.10,2013-04-01 14:14:00,
2013-04-01 10:29:00,36.0,28.0,29.72,WSW,240,13.0,-999.0,72,-99.99,,,0.00,weatherlink.com 1.10,2013-04-01 14:29:00,
2013-04-01 10:43:00,37.6,28.0,29.73,WSW,244,11.0,-999.0,69,-99.99,,,0.00,weatherlink.com 1.10,2013-04-01 14:43:00,
2013-04-01 10:59:00,38.0,27.0,29.73,SW,229,16.0,-999.0,65,-99.99,,,0.00,weatherlink.com 1.10,2013-04-01 14:59:00,
2013-04-01 11:14:00,36.9,27.0,29.74,SSW,211,3.0,-999.0,68,-99.99,,,0.00,weatherlink.com 1.10,2013-04-01 15:14:00,
2013-04-01 11:29:00,36.8,25.0,29.75,WSW,246,4.0,-999.0,62,-99.99,,,0.00,weatherlink.com 1.10,2013-04-01 15:29:00,
2013-04-01 11:44:00,36.8,25.0,29.76,West,263,5.0,-999.0,62,-99.99,,,0.00,weatherlink.com 1.10,2013-04-01 15:44:00,
2013-04-01 11:59:00,36.4,23.0,29.77,West,261,5.0,-999.0,59,-99.99,,,0.00,weatherlink.com 1.10,2013-04-01 15:59:00,
2013-04-01 12:14:00,37.4,24.0,29.78,WNW,290,3.0,-999.0,60,-99.99,,,0.00,weatherlink.com 1.10,2013-04-01 16:14:00,
2013-04-01 12:29:00,35.5,24.0,29.79,WNW,299,3.0,-999.0,64,-99.99,,,0.00,weatherlink.com 1.10,2013-04-01 16:29:00,
2013-04-01 12:44:00,36.3,24.0,29.79,West,267,6.0,-999.0,61,-99.99,,,0.00,weatherlink.com 1.10,2013-04-01 16:44:00,
2013-04-01 12:59:00,36.2,24.0,29.79,North,360,18.0,-999.0,61,-99.99,,,0.00,weatherlink.com 1.10,2013-04-01 16:59:00,
2013-04-01 13:14:00,36.1,22.0,29.80,WSW,246,15.0,-999.0,58,-99.99,,,0.00,weatherlink.com 1.10,2013-04-01 17:14:00,
2013-04-01 13:29:00,38.8,20.0,29.79,WNW,298,9.0,-999.0,48,-99.99,,,0.00,weatherlink.com 1.10,2013-04-01 17:29:00,
2013-04-01 13:44:00,36.5,21.0,29.80,West,264,12.0,-999.0,53,-99.99,,,0.00,weatherlink.com 1.10,2013-04-01 17:44:00,
2013-04-01 13:59:00,37.0,20.0,29.81,West,264,12.0,-999.0,50,-99.99,,,0.00,weatherlink.com 1.10,2013-04-01 17:59:00,
2013-04-01 14:14:00,36.5,22.0,29.81,SW,217,11.0,-999.0,56,-99.99,,,0.00,weatherlink.com 1.10,2013-04-01 18:14:00,
2013-04-01 14:29:00,37.2,21.0,29.82,WNW,288,5.0,-999.0,53,-99.99,,,0.00,weatherlink.com 1.10,2013-04-01 18:29:00,
2013-04-01 14:44:00,37.2,24.0,29.82,WNW,283,11.0,-999.0,59,-99.99,,,0.00,weatherlink.com 1.10,2013-04-01 18:44:00,
2013-04-01 14:59:00,37.7,24.0,29.83,WNW,295,1.0,-999.0,57,-99.99,,,0.00,weatherlink.com 1.10,2013-04-01 18:59:00,
2013-04-01 15:14:00,35.7,22.0,29.83,WSW,243,14.0,-999.0,58,-99.99,,,0.00,weatherlink.com 1.10,2013-04-01 19:14:00,
2013-04-01 15:29:00,37.1,21.0,29.83,WNW,283,6.0,-999.0,53,-99.99,,,0.00,weatherlink.com 1.10,2013-04-01 19:29:00,
2013-04-01 15:44:00,38.2,20.0,29.83,WSW,243,7.0,-999.0,48,-99.99,,,0.00,weatherlink.com 1.10,2013-04-01 19:44:00,
2013-04-01 15:59:00,37.5,20.0,29.84,WSW,246,6.0,-999.0,49,-99.99,,,0.00,weatherlink.com 1.10,2013-04-01 19:59:00,
2013-04-01 16:14:00,38.3,20.0,29.85,WSW,249,15.0,-999.0,49,-99.99,,,0.00,weatherlink.com 1.10,2013-04-01 20:14:00,
2013-04-01 16:29:00,39.6,21.0,29.85,West,277,8.0,-999.0,47,-99.99,,,0.00,weatherlink.com 1.10,2013-04-01 20:29:00,
2013-04-01 16:44:00,37.3,19.0,29.86,West,279,12.0,-999.0,48,-99.99,,,0.00,weatherlink.com 1.10,2013-04-01 20:44:00,
2013-04-01 16:59:00,36.6,21.0,29.87,NE,34,5.0,-999.0,53,-99.99,,,0.00,weatherlink.com 1.10,2013-04-01 20:59:00,
2013-04-01 17:14:00,36.2,21.0,29.87,North,355,9.0,-999.0,54,-99.99,,,0.00,weatherlink.com 1.10,2013-04-01 21:14:00,
2013-04-01 17:29:00,35.7,22.0,29.88,WSW,246,0.0,-999.0,57,-99.99,,,0.00,weatherlink.com 1.10,2013-04-01 21:29:00,
2013-04-01 17:44:00,35.1,22.0,29.89,NNW,337,10.0,-999.0,59,-99.99,,,0.00,weatherlink.com 1.10,2013-04-01 21:44:00,
2013-04-01 18:14:00,34.8,21.0,29.90,West,261,4.0,-999.0,58,-99.99,,,0.00,weatherlink.com 1.10,2013-04-01 22:14:00,
2013-04-01 18:29:00,35.0,20.0,29.90,West,262,6.0,-999.0,54,-99.99,,,0.00,weatherlink.com 1.10,2013-04-01 22:29:00,
2013-04-01 18:44:00,35.1,19.0,29.91,SW,222,0.0,-999.0,53,-99.99,,,0.00,weatherlink.com 1.10,2013-04-01 22:44:00,
2013-04-01 18:59:00,34.4,20.0,29.91,WSW,244,2.0,-999.0,56,-99.99,,,0.00,weatherlink.com 1.10,2013-04-01 22:59:00,
2013-04-01 19:14:00,33.7,19.0,29.91,WSW,254,0.0,-999.0,56,-99.99,,,0.00,weatherlink.com 1.10,2013-04-01 23:14:00,
2013-04-01 19:29:00,33.7,19.0,29.92,WSW,237,6.0,-999.0,55,-99.99,,,0.00,weatherlink.com 1.10,2013-04-01 23:29:00,
2013-04-01 19:44:00,32.3,21.0,29.92,WSW,254,8.0,-999.0,64,-99.99,,,0.00,weatherlink.com 1.10,2013-04-01 23:44:00,
2013-04-01 19:59:00,30.9,23.0,29.93,WSW,237,0.0,-999.0,72,-99.99,,,0.00,weatherlink.com 1.10,2013-04-01 23:59:00,
2013-04-01 20:29:00,29.9,22.0,29.94,West,275,1.0,-999.0,71,-99.99,,,0.00,weatherlink.com 1.10,2013-04-02 00:29:00,
2013-04-01 20:44:00,28.5,19.0,29.94,West,265,7.0,-999.0,68,-99.99,,,0.00,weatherlink.com 1.10,2013-04-02 00:44:00,
2013-04-01 20:59:00,-999.0,-99.9,29.94,North,-999,-999.0,-999.0,-999,-99.99,,,0.00,weatherlink.com 1.10,2013-04-02 00:59:00,
2013-04-01 21:14:00,-999.0,-99.9,29.94,North,-999,-999.0,-999.0,-999,-99.99,,,0.00,weatherlink.com 1.10,2013-04-02 01:14:00,
2013-04-01 21:29:00,-999.0,-99.9,29.94,North,-999,-999.0,-999.0,-999,-99.99,,,0.00,weatherlink.com 1.10,2013-04-02 01:29:00,
2013-04-01 21:44:00,-999.0,-99.9,29.94,North,-999,-999.0,-999.0,-999,-99.99,,,0.00,weatherlink.com 1.10,2013-04-02 01:44:00,
2013-04-01 21:59:00,-999.0,-99.9,29.94,North,-999,-999.0,-999.0,-999,-99.99,,,0.00,weatherlink.com 1.10,2013-04-02 01:59:00,
2013-04-01 22:14:00,-999.0,-99.9,29.94,North,-999,-999.0,-999.0,-999,-99.99,,,0.00,weatherlink.com 1.10,2013-04-02 02:14:00,
2013-04-01 22:29:00,-999.0,-99.9,29.94,North,-999,-999.0,-999.0,-999,-99.99,,,0.00,weatherlink.com 1.10,2013-04-02 02:29:00,
2013-04-01 22:44:00,-999.0,-99.9,29.94,North,-999,-999.0,-999.0,-999,-99.99,,,0.00,weatherlink.com 1.10,2013-04-02 02:44:00,
2013-04-01 22:59:00,-999.0,-99.9,29.94,North,-999,-999.0,-999.0,-999,-99.99,,,0.00,weatherlink.com 1.10,2013-04-02 02:59:00,
2013-04-01 23:14:00,-999.0,-99.9,29.93,North,-999,-999.0,-999.0,-999,-99.99,,,0.00,weatherlink.com 1.10,2013-04-02 03:14:00,
2013-04-01 23:29:00,-999.0,-99.9,29.93,North,-999,-999.0,-999.0,-999,-99.99,,,0.00,weatherlink.com 1.10,2013-04-02 03:29:00,
2013-04-01 23:44:00,-999.0,-99.9,29.93,North,-999,-999.0,-999.0,-999,-99.99,,,0.00,weatherlink.com 1.10,2013-04-02 03:44:00,
2013-04-01 23:59:00,-999.0,-99.9,29.93,North,-999,-999.0,-999.0,-999,-99.99,,,0.00,weatherlink.com 1.10,2013-04-02 03:59:00,